Flag for Germany Weather past 2 weeks in Viersen, North Rhine-Westphalia, Germany

Now
61 °F

Clear.


Feels Like: 61 °F
Forecast: 49 / 68 °F
Wind: 1 mph from North

Location: Monchengladbach Airport

Current Time: Sep 1, 2014 at 9:33:33 PM

Latest Report: Sep 1, 2014 at 8:20 PM


Visibility: 10 mi

Pressure: 30.12 "Hg

Humidity: 94%

Dew point: 59 °F

Location of ViersenLocation

Historic Weather in Viersen — Graph

°F

Viersen temperature yesterday

Maximum temperature yesterday: 64 °F (at 1:20 PM)
Minimum temperature yesterday: 57 °F (at 7:50 AM)
Average temperature yesterday: 60 °F

Past Weeks' High & Low Weather Summary

 TemperatureHumidityPressure
High73 °F (Aug 28, 1:50 PM)100% (Aug 19, 8:20 AM)30.15 "Hg (Aug 19, 8:20 AM)
Low48 °F (Aug 21, 7:50 AM)43% (Aug 27, 2:20 PM)29.62 "Hg (Aug 26, 7:50 AM)
Average61 °F75%29.94 "Hg
* Reported Aug 17 8:20 PM — Sep 1 8:20 PM, Viersen, Weather by CustomWeather, © 2014

Note: Actual official high and low records may vary slightly from our data, if they occured in-between our weather recording intervals... More about our weather records

Advertising

Viersen weather history for previous 24 hours

 ConditionsComfort  
Time TempWeatherWind HumidityBarometerVisibility
8:20 PM
Sep 1
61 °FClear.1 mph94%30.12 "Hg10 mi
7:50 PM63 °FClear.No wind88%30.12 "Hg10 mi
7:20 PM64 °FClear.2 mph73%30.12 "Hg10 mi
6:50 PM66 °FClear.1 mph68%30.12 "Hg10 mi
6:20 PM66 °FClear.3 mph68%30.12 "Hg10 mi
5:50 PM66 °FPassing clouds.3 mph64%30.12 "HgN/A
5:20 PM66 °FPassing clouds.6 mph64%30.12 "HgN/A
4:50 PM66 °FPassing clouds.8 mph64%30.12 "HgN/A
4:20 PM66 °FPassing clouds.7 mph68%30.12 "HgN/A
3:50 PM66 °FPassing clouds.5 mph64%30.12 "HgN/A
3:20 PM64 °FPassing clouds.3 mph73%30.12 "HgN/A
2:50 PM64 °FPassing clouds.6 mph68%30.15 "HgN/A
2:20 PM64 °FPartly cloudy.5 mph73%30.15 "HgN/A
1:50 PM66 °FPassing clouds.2 mph68%30.15 "HgN/A
1:20 PM63 °FPassing clouds.6 mph77%30.15 "HgN/A
12:50 PM64 °FPassing clouds.3 mph78%30.15 "HgN/A
12:20 PM63 °FScattered clouds.5 mph83%30.15 "Hg5 mi
11:50 AM61 °FFog.6 mph88%30.15 "Hg3 mi
11:20 AM59 °FFog.3 mph94%30.15 "Hg2 mi
10:50 AM57 °FFog.5 mph100%30.15 "Hg2 mi
10:20 AM55 °FFog.3 mph100%30.15 "Hg1 mi
9:50 AM55 °FFog.3 mph100%30.15 "Hg1 mi
9:20 AM55 °FFog.3 mph100%30.12 "Hg1 mi
8:50 AM54 °FFog.3 mph100%30.12 "Hg1 mi
8:20 AM54 °FFog.3 mph100%30.12 "Hg1 mi
7:50 AM54 °FFog.3 mph100%30.12 "Hg1 mi
Weather by CustomWeather, © 2014

See weather overviewHow to use our weather pages